Date,TemperatureHighF,TemperatureAvgF,TemperatureLowF,DewpointHighF,DewpointAvgF,DewpointLowF,HumidityHigh,HumidityAvg,HumidityLow,PressureMaxIn,PressureMinIn,WindSpeedMaxMPH,WindSpeedAvgMPH,GustSpeedMaxMPH,PrecipitationSumIn
2013-1-1,45,37,32,40,32,30,96,84,65,29.84,29.70,11,4,17,0.00
2013-1-2,44,39,35,41,34,32,100,84,70,30.30,29.80,14,7,26,0.00
2013-1-3,43,39,34,43,37,31,100,91,80,30.31,30.19,22,11,36,0.02
2013-1-4,50,46,43,49,44,40,100,93,76,30.34,30.09,17,8,25,0.17
2013-1-5,49,44,41,49,43,41,100,97,88,30.26,30.08,18,8,29,0.05
2013-1-6,44,42,40,44,42,40,100,97,89,30.25,30.03,17,6,26,0.05
2013-1-7,45,40,37,44,40,36,99,99,99,30.25,30.10,14,3,17,0.14
2013-1-8,42,39,34,42,39,34,99,99,99,30.22,30.07,10,2,16,0.08
2013-1-9,43,41,39,42,40,38,100,98,94,30.11,29.79,11,5,19,0.01
2013-1-10,39,37,33,39,36,33,100,96,87,29.80,29.62,14,6,22,0.07
2013-1-11,33,28,25,33,25,19,100,86,74,29.91,29.63,17,6,24,0.00
2013-1-12,35,26,22,25,20,16,95,80,59,29.97,29.89,11,3,15,0.00
2013-1-13,32,26,23,30,23,18,100,89,77,29.98,29.94,9,2,13,0.00
2013-1-14,34,26,21,33,26,21,100,98,89,29.94,29.79,11,3,18,0.00
2013-1-15,34,25,18,33,24,17,100,97,81,29.82,29.65,5,2,10,0.00
2013-1-16,29,26,24,28,26,24,99,99,99,29.68,29.62,11,2,14,0.00
2013-1-17,29,26,24,27,25,22,100,96,85,29.81,29.64,17,6,27,0.00
2013-1-18,24,22,19,24,21,19,100,96,87,29.80,29.60,13,4,21,0.00
2013-1-19,35,23,20,27,22,19,100,93,62,29.60,29.45,8,2,16,0.00
2013-1-20,27,24,20,27,23,19,100,97,88,29.47,29.37,11,3,18,0.00
2013-1-21,26,24,20,26,24,19,99,99,99,29.50,29.35,5,2,8,0.00
2013-1-22,32,22,18,24,20,17,100,92,69,29.68,29.50,5,2,7,0.00
2013-1-23,28,24,20,25,22,18,100,93,79,29.71,29.66,4,2,6,0.00
2013-1-24,25,22,19,24,22,18,100,97,92,29.89,29.68,8,3,14,0.00
2013-1-25,25,18,10,20,17,9,100,93,80,30.03,29.88,11,3,14,0.00
2013-1-26,17,12,2,15,10,0,100,93,84,29.98,29.87,8,2,11,0.00
2013-1-27,32,26,15,31,24,14,100,94,84,29.89,29.64,10,3,16,0.00
2013-1-28,37,33,29,35,32,28,100,97,88,29.98,29.66,14,4,19,0.11
2013-1-29,43,39,34,42,38,34,100,97,90,29.97,29.76,26,10,36,0.02
2013-1-30,56,48,42,52,46,38,100,95,78,29.80,29.59,27,12,41,0.13
2013-1-31,48,43,38,41,36,32,99,75,55,29.88,29.68,24,10,43,0.07